Total_Precipitation_Accumulation
1.13 1.33 1.47 1.44 1.59 1.74 1.94 2.08 2.31 2.74 3.20 3.19 2.92 2.73 2.45 2.23 2.05 1.93 1.87 1.89 1.92 2.11 2.36 2.19 2.34 2.30 2.16 2.12 2.24 2.45 2.42 2.17 2.38 2.14 1.58 1.17 0.91 0.88 0.80 0.81 0.86 0.85 0.92
1.31 1.54 1.63 1.67 1.76 2.02 2.41 2.62 2.78 3.19 3.48 3.40 3.26 3.06 2.87 2.52 2.40 2.27 2.13 1.94 1.86 1.99 2.10 2.27 2.14 2.13 2.11 2.11 2.26 2.40 2.20 1.92 2.37 2.42 2.23 1.60 1.17 0.86 0.71 0.89 0.98 0.95 1.00
1.22 1.39 1.35 1.39 1.49 1.64 1.87 2.18 2.58 3.03 3.21 3.31 3.25 3.15 3.08 2.67 2.51 2.36 2.21 2.02 1.90 1.87 1.98 2.09 2.09 2.01 1.99 1.98 2.15 2.21 2.16 2.02 2.18 2.39 2.53 2.12 1.54 1.18 0.82 0.79 0.87 1.02 1.13
1.27 1.16 1.05 1.15 1.22 1.21 1.46 1.74 2.12 2.48 2.74 2.89 2.93 2.98 2.89 2.69 2.63 2.46 2.13 1.91 1.79 1.80 1.86 1.88 1.87 1.87 1.82 1.81 1.77 1.88 2.18 2.23 2.04 2.20 2.26 2.18 1.99 1.74 1.18 0.92 0.91 0.99 1.03
1.07 0.96 0.97 1.08 1.12 1.15 1.39 1.61 1.85 2.15 2.40 2.51 2.51 2.53 2.44 2.36 2.30 2.16 1.93 1.78 1.66 1.60 1.52 1.54 1.70 1.76 1.69 1.63 1.65 1.77 1.92 1.95 1.93 2.02 2.13 2.14 2.06 1.82 1.51 1.09 0.94 0.91 0.85
0.92 0.95 1.00 1.06 1.12 1.32 1.52 1.71 1.93 2.17 2.29 2.14 2.00 1.99 2.01 2.04 1.96 1.83 1.68 1.52 1.43 1.36 1.29 1.38 1.51 1.55 1.55 1.55 1.52 1.57 1.67 1.75 1.79 1.86 1.97 1.99 1.88 1.79 1.77 1.40 1.13 0.99 0.75
0.76 0.81 0.99 1.20 1.26 1.26 1.26 1.44 1.74 2.05 2.07 1.91 1.74 1.66 1.66 1.72 1.70 1.61 1.52 1.45 1.33 1.25 1.22 1.25 1.27 1.30 1.35 1.40 1.44 1.46 1.52 1.66 1.71 1.74 1.84 1.91 1.86 1.85 1.81 1.65 1.36 1.19 0.85
0.39 0.41 0.50 0.60 0.58 0.58 0.59 0.66 0.80 1.02 1.14 1.12 1.12 1.12 1.16 1.23 1.28 1.38 1.34 1.34 1.29 1.18 1.13 1.07 1.06 1.11 1.15 1.18 1.31 1.40 1.49 1.61 1.67 1.69 1.90 1.86 1.81 1.87 1.87 1.84 1.79 1.56 1.24
0.29 0.28 0.29 0.32 0.37 0.38 0.42 0.51 0.59 0.67 0.72 0.72 0.71 0.74 0.80 0.90 0.97 1.04 1.07 1.11 1.11 1.06 1.04 1.05 1.07 1.05 1.06 1.12 1.21 1.30 1.34 1.47 1.56 1.66 1.81 1.86 1.84 1.81 1.89 1.98 2.01 1.98 1.75
0.29 0.27 0.28 0.32 0.40 0.48 0.57 0.63 0.63 0.59 0.55 0.55 0.56 0.54 0.60 0.66 0.72 0.76 0.78 0.79 0.81 0.85 0.86 0.87 0.90 0.92 0.93 0.95 1.05 1.14 1.23 1.33 1.39 1.47 1.58 1.67 1.72 1.74 1.79 1.90 1.93 1.95 1.92
0.30 0.29 0.28 0.31 0.36 0.45 0.52 0.59 0.60 0.57 0.55 0.53 0.53 0.53 0.52 0.52 0.55 0.61 0.63 0.65 0.67 0.69 0.70 0.73 0.76 0.81 0.85 0.90 0.95 0.99 1.08 1.13 1.17 1.23 1.34 1.44 1.58 1.57 1.48 1.52 1.62 1.75 1.84
0.25 0.24 0.23 0.25 0.28 0.35 0.42 0.46 0.48 0.52 0.52 0.47 0.48 0.50 0.48 0.45 0.47 0.49 0.50 0.53 0.57 0.60 0.61 0.63 0.66 0.71 0.77 0.86 0.95 1.01 1.07 1.09 1.09 1.13 1.23 1.28 1.36 1.45 1.42 1.36 1.37 1.54 1.69
0.26 0.25 0.23 0.24 0.26 0.32 0.39 0.43 0.44 0.48 0.50 0.47 0.47 0.44 0.47 0.48 0.46 0.40 0.39 0.40 0.44 0.51 0.50 0.50 0.53 0.59 0.69 0.80 0.87 0.91 0.96 1.04 1.11 1.09 1.09 1.09 1.16 1.34 1.47 1.47 1.44 1.48 1.60
0.23 0.22 0.24 0.26 0.27 0.27 0.29 0.34 0.42 0.50 0.46 0.43 0.42 0.41 0.40 0.40 0.43 0.41 0.37 0.36 0.38 0.43 0.46 0.48 0.53 0.57 0.63 0.69 0.74 0.74 0.74 0.77 0.85 0.90 0.89 0.87 0.89 1.05 1.32 1.41 1.52 1.57 1.56
0.18 0.17 0.17 0.18 0.19 0.22 0.25 0.29 0.30 0.38 0.44 0.45 0.42 0.41 0.40 0.37 0.35 0.33 0.31 0.31 0.31 0.31 0.36 0.41 0.48 0.53 0.55 0.53 0.55 0.59 0.55 0.55 0.54 0.57 0.61 0.63 0.66 0.68 0.81 1.01 1.28 1.46 1.54
0.14 0.12 0.11 0.11 0.12 0.14 0.18 0.21 0.22 0.27 0.33 0.36 0.35 0.37 0.38 0.37 0.37 0.31 0.27 0.27 0.28 0.30 0.34 0.37 0.38 0.40 0.40 0.42 0.44 0.44 0.43 0.41 0.40 0.39 0.40 0.40 0.41 0.43 0.50 0.59 0.79 1.04 1.28
0.08 0.07 0.06 0.06 0.07 0.07 0.09 0.16 0.20 0.21 0.25 0.28 0.31 0.33 0.37 0.40 0.38 0.30 0.26 0.26 0.27 0.30 0.33 0.36 0.37 0.38 0.40 0.35 0.34 0.38 0.36 0.35 0.35 0.36 0.37 0.30 0.26 0.31 0.38 0.42 0.47 0.61 0.75
0.03 0.03 0.03 0.02 0.03 0.04 0.06 0.13 0.20 0.23 0.26 0.31 0.36 0.38 0.38 0.41 0.41 0.35 0.33 0.33 0.34 0.34 0.37 0.39 0.39 0.40 0.38 0.32 0.29 0.28 0.27 0.34 0.38 0.36 0.37 0.35 0.31 0.31 0.36 0.43 0.45 0.41 0.45
0.01 0.01 0.01 0.02 0.03 0.05 0.09 0.15 0.20 0.26 0.32 0.37 0.42 0.43 0.43 0.44 0.44 0.44 0.45 0.47 0.48 0.42 0.38 0.41 0.44 0.45 0.44 0.35 0.29 0.28 0.28 0.34 0.40 0.38 0.38 0.39 0.35 0.30 0.26 0.34 0.43 0.42 0.42
0.00 0.01 0.01 0.03 0.06 0.09 0.14 0.22 0.26 0.32 0.36 0.37 0.38 0.38 0.43 0.49 0.51 0.53 0.57 0.59 0.61 0.54 0.48 0.46 0.50 0.51 0.52 0.42 0.29 0.28 0.33 0.40 0.44 0.45 0.43 0.40 0.35 0.30 0.25 0.30 0.39 0.42 0.41
0.01 0.02 0.03 0.08 0.14 0.13 0.19 0.25 0.28 0.33 0.35 0.38 0.39 0.41 0.44 0.50 0.54 0.63 0.70 0.74 0.72 0.69 0.63 0.58 0.58 0.61 0.56 0.46 0.29 0.29 0.35 0.44 0.53 0.53 0.51 0.50 0.40 0.29 0.27 0.30 0.36 0.38 0.42
0.02 0.03 0.06 0.12 0.18 0.20 0.27 0.31 0.32 0.34 0.38 0.43 0.43 0.43 0.49 0.42 0.43 0.64 0.75 0.81 0.83 0.78 0.72 0.72 0.69 0.68 0.65 0.50 0.37 0.30 0.35 0.44 0.61 0.68 0.66 0.61 0.48 0.38 0.32 0.31 0.31 0.31 0.33
0.04 0.06 0.10 0.14 0.17 0.23 0.36 0.46 0.46 0.46 0.49 0.54 0.56 0.57 0.55 0.57 0.62 0.72 0.78 0.81 0.84 0.83 0.77 0.79 0.79 0.78 0.77 0.70 0.45 0.35 0.37 0.41 0.57 0.68 0.67 0.61 0.49 0.44 0.40 0.39 0.36 0.32 0.35
0.04 0.06 0.11 0.16 0.22 0.27 0.37 0.49 0.54 0.55 0.58 0.64 0.65 0.69 0.73 0.72 0.74 0.86 0.88 0.86 0.86 0.88 0.84 0.84 0.85 0.85 0.86 0.86 0.75 0.60 0.52 0.51 0.53 0.59 0.64 0.64 0.58 0.50 0.50 0.49 0.43 0.38 0.41
0.05 0.08 0.13 0.21 0.25 0.29 0.37 0.45 0.53 0.60 0.68 0.71 0.69 0.73 0.81 0.88 0.90 0.90 0.89 0.85 0.88 0.82 0.80 0.82 0.82 0.85 0.85 0.78 0.70 0.70 0.71 0.69 0.67 0.70 0.79 0.82 0.75 0.67 0.64 0.63 0.60 0.57 0.53
0.08 0.12 0.17 0.23 0.27 0.30 0.38 0.47 0.58 0.68 0.80 0.81 0.76 0.75 0.77 0.84 0.88 0.88 0.76 0.63 0.60 0.53 0.49 0.53 0.59 0.62 0.59 0.58 0.56 0.57 0.59 0.63 0.71 0.75 0.82 0.92 0.95 0.88 0.80 0.75 0.73 0.71 0.64